Dewpoint
6 6 6 6 4 3 -1 0 0 -1 1 2 1 -0 -1 -2 -0 -1 -2 -3 -3 -3 -3 -3 -2 -2 -0 0 1 2 2 3 9 12 12 9 11 10 11 12 13 13 12 12
5 6 5 5 3 3 1 -1 -0 -1 -1 2 1 0 -1 -1 -1 -1 -2 -4 -5 -5 -4 -3 -2 -2 -2 -1 0 0 1 2 2 7 11 8 5 6 9 9 9 10 11 10
4 4 3 6 6 6 6 1 -0 1 1 1 -0 1 -0 -1 -2 -2 -2 -3 -3 -3 -3 -3 -3 -3 -3 -3 -1 -0 0 1 1 1 6 10 10 13 10 6 8 8 9 12
2 4 3 5 7 7 5 -1 -1 0 2 1 -0 -2 -2 -2 -3 -4 -4 -3 -2 -2 -2 -1 -1 -1 -2 -3 -3 -3 -2 -0 0 -0 1 5 10 11 11 10 8 8 8 7
6 6 6 6 6 6 7 2 1 2 2 2 2 3 -0 -3 -2 -3 -2 -1 -0 -0 -0 0 1 1 0 -3 -4 -5 -5 -4 -2 -1 -1 3 7 9 11 11 11 11 10 6
5 4 4 5 5 5 1 2 2 3 4 8 2 1 -0 -2 -2 -2 -1 -0 1 1 1 1 2 3 3 -1 -2 -3 -3 -4 -4 -4 -3 -2 2 8 10 10 11 11 11 11
5 5 4 3 4 4 4 6 9 9 8 5 0 2 -2 -4 -4 -2 -1 0 2 2 3 2 3 2 3 2 0 -0 -1 -1 -3 -4 -4 -4 -2 3 8 10 10 11 11 10
7 7 4 4 5 5 6 7 10 7 6 3 -0 3 -1 -5 -5 -2 -0 1 2 3 3 4 4 4 3 4 3 1 0 0 -2 -2 -2 -2 -2 -1 2 7 9 10 10 11
7 7 4 4 3 4 6 6 0 1 -0 1 -2 -3 -4 -5 -4 -2 -2 -0 3 3 4 4 4 4 4 4 4 3 2 2 1 0 -2 -1 -0 -3 -3 -2 2 7 8 10
2 7 5 4 3 1 3 1 4 6 4 2 -2 -3 -2 -3 -2 -2 -1 -0 1 3 4 3 3 4 4 4 3 3 3 2 2 2 1 -1 -1 -2 -3 -3 -2 -1 2 2
1 3 5 3 6 5 2 3 1 1 1 1 -2 -5 -4 -3 -3 -1 -2 -1 1 3 3 3 3 4 4 3 3 3 2 2 2 2 1 1 0 -0 -1 -2 -2 -3 -3 -3
0 2 5 4 0 -0 -0 1 0 5 4 2 3 -2 -5 -3 -3 -4 -2 -1 1 3 3 4 4 3 3 2 2 2 2 2 2 3 2 1 1 1 1 0 -1 -1 -2 -2
-1 3 5 4 2 1 2 1 -1 -0 4 5 2 -2 -5 -3 -4 -4 -4 -1 1 3 2 2 2 2 2 1 2 2 1 1 2 2 3 2 2 1 1 1 0 -0 -0 0
-2 1 4 4 2 2 6 2 0 4 5 1 1 -3 -3 -3 -3 -4 -2 -0 2 3 2 2 1 1 1 1 1 0 1 2 2 2 3 3 3 2 2 2 2 3 3 4
-1 3 2 0 0 1 2 3 2 4 3 6 -2 -2 -4 -4 -4 -3 -0 2 3 2 1 1 1 1 0 -0 0 1 1 1 1 2 2 3 3 3 3 3 4 4 4 4
-1 4 2 4 0 1 3 1 2 1 0 -0 -1 -1 -4 -5 -2 -1 1 3 3 2 1 -0 0 -0 -0 -0 1 1 1 1 1 1 1 2 3 3 3 3 3 3 3 3
-0 2 3 4 1 2 4 2 1 1 -0 -0 2 -1 -2 -2 -2 -1 1 3 2 0 -0 -1 -0 -0 -0 -0 0 0 1 0 1 1 1 1 1 1 2 1 1 1 0 0
0 1 1 2 1 5 0 -2 -0 0 -0 -1 -1 -2 -2 -2 -1 0 1 2 1 -0 -1 -1 -1 -0 -0 -0 1 1 1 1 0 -0 -0 -0 0 1 0 -0 -1 -1 -1 -1
-2 -0 2 3 2 0 3 1 0 2 4 -1 -1 -2 -1 0 2 3 2 1 -0 -0 -2 -2 -1 -1 0 -0 -0 0 0 0 0 -0 -1 -0 -0 -1 -1 -1 -1 -1 -2 -2
-0 -1 1 3 4 2 4 2 1 1 7 1 -0 1 2 3 5 5 1 2 1 -1 -2 -2 -1 -1 -1 -1 -1 -1 -0 0 0 -0 -1 -1 -2 -2 -2 -1 -2 -2 -2 -2
2 2 2 2 2 0 -2 -2 -1 6 7 2 1 1 1 3 3 3 2 2 -1 -2 -2 -1 -1 -2 -2 -2 -2 -1 -1 -0 -1 -1 -2 -2 -2 -2 -2 -1 -2 -2 -2 -4
1 1 2 1 2 3 1 1 2 3 2 1 2 2 3 3 3 2 2 1 -1 -1 -1 -2 -2 -2 -3 -3 -3 -3 -1 -1 -1 -2 -1 -1 -1 -1 -2 -2 -5 -11 -15 -18
2 -1 -0 -1 0 -1 -2 0 -1 -0 1 2 2 2 2 3 2 2 1 0 -0 -1 -1 -2 -3 -3 -2 -3 -3 -2 -1 -1 -1 -1 -2 -2 -2 -6 -14 -14 -15 -18 -19 -20
-0 -1 -0 1 -2 -2 -2 -1 2 1 2 2 2 1 1 2 2 1 1 1 0 -1 -1 -2 -2 -3 -2 -2 -2 -1 -1 -1 -1 -1 -2 -6 -15 -15 -14 -15 -18 -20 -21 -22
-0 0 -0 -0 -1 -1 -0 -0 2 1 1 2 3 3 1 2 2 2 2 2 0 -1 -1 -2 -2 -1 -2 -2 -1 -2 -2 -2 -2 -2 -12 -16 -16 -15 -15 -19 -20 -21 -22 -23
-2 -1 1 -0 -2 -2 0 2 2 1 1 2 2 2 2 1 2 2 2 2 0 -1 -1 -2 -1 -2 -2 -1 -2 -1 -1 -1 -4 -14 -17 -16 -15 -15 -17 -20 -21 -22 -23 -26
Wind_Speed
19 15 18 28 28 20 17 17 21 15 8 13 23 18 17 13 13 14 16 17 17 17 16 16 17 18 18 19 21 21 21 21 20 20 27 26 30 28 27 26 21 22 23 23
13 19 11 14 22 21 13 19 21 8 8 8 13 20 17 13 18 20 19 20 19 18 17 15 16 16 18 19 20 23 23 22 23 23 25 30 27 30 33 34 34 33 30 30
19 6 17 11 16 17 21 14 16 11 12 9 6 13 14 15 18 16 11 15 15 12 13 14 14 14 18 20 20 20 21 23 25 25 24 26 23 20 27 33 37 40 38 35
15 5 18 14 10 16 15 15 12 12 14 6 13 3 16 15 11 10 10 8 6 5 5 3 2 2 9 15 22 27 27 26 27 28 28 26 26 27 27 28 32 35 38 38
3 12 13 17 7 14 4 4 11 13 15 6 12 5 10 10 11 11 10 8 6 5 4 4 4 4 3 0 5 12 20 26 28 28 30 25 27 26 24 24 24 27 29 33
7 11 4 2 4 9 7 12 8 2 3 5 11 10 10 11 12 12 10 9 7 6 5 5 5 5 5 5 4 3 1 7 16 24 28 28 28 22 23 22 23 22 25 28
5 4 4 7 6 8 10 10 5 4 4 3 6 6 4 8 12 11 11 10 6 5 5 4 3 2 3 3 4 3 3 3 3 7 14 21 25 24 22 21 22 21 24 28
4 4 1 1 1 4 9 2 2 5 9 9 5 7 4 11 10 11 8 6 5 4 3 3 3 3 3 5 4 4 3 4 4 5 6 8 15 21 24 20 20 19 20 20
5 3 2 4 2 4 4 3 1 2 3 4 8 4 6 9 11 11 9 7 5 3 2 3 4 4 3 4 5 6 6 7 8 8 9 8 7 10 12 15 18 18 20 21
5 5 2 3 4 3 1 6 2 2 5 5 6 6 5 15 15 11 9 9 6 3 1 3 4 4 3 3 5 5 6 7 8 9 11 12 14 14 14 14 14 16 15 17
7 4 3 4 4 4 2 3 2 3 3 3 5 3 9 18 15 12 8 5 4 2 1 3 3 2 3 3 4 5 6 7 8 7 7 7 8 10 12 13 14 15 16 18
3 5 4 2 2 4 4 4 6 3 3 1 3 4 9 16 15 12 6 4 5 3 1 1 1 2 3 3 3 3 4 5 6 6 5 3 2 3 5 7 9 11 13 16
5 4 5 2 2 3 5 7 4 1 2 3 2 5 7 15 11 3 2 3 6 5 2 1 1 1 2 1 2 3 4 5 5 4 4 5 4 4 4 5 7 10 12 14
3 2 2 1 4 5 3 8 7 3 2 2 3 8 11 12 10 6 2 4 5 5 4 4 3 2 1 1 2 3 4 4 4 4 3 3 3 5 6 7 8 10 12 12
2 2 3 3 3 0 3 5 10 5 5 2 5 2 11 12 9 5 3 5 6 5 5 5 5 3 2 1 2 3 3 4 4 4 3 4 4 3 3 3 4 6 6 6
0 2 2 1 1 3 5 6 8 12 14 12 8 7 4 8 5 4 3 5 6 7 7 6 5 4 2 0 1 0 2 3 4 3 2 2 1 1 3 4 3 4 5 6
2 4 2 0 2 4 7 12 12 9 8 13 10 11 6 4 2 4 5 7 7 9 7 7 7 6 5 3 3 3 2 1 3 3 2 2 4 7 8 7 8 9 9 8
3 3 1 2 2 3 3 1 4 12 6 11 8 6 5 4 6 6 6 7 8 8 8 7 7 6 6 4 4 3 2 2 3 4 5 5 7 8 10 10 13 14 13 12
3 3 2 3 4 5 4 4 4 7 3 14 12 9 5 3 2 7 6 6 8 8 6 6 6 7 7 7 4 3 3 4 5 5 7 8 9 13 13 14 16 15 13 14
1 1 3 1 2 2 4 3 3 2 3 5 4 2 2 1 4 3 8 7 6 6 6 7 8 8 7 6 5 5 5 6 8 8 11 13 15 16 16 17 18 16 14 13
4 3 6 5 3 4 6 4 1 3 3 6 4 4 4 4 2 5 6 6 5 7 7 9 9 7 7 6 7 7 9 11 12 14 16 17 18 18 17 16 15 12 10 10
6 4 3 4 4 4 7 4 2 3 3 6 6 4 4 2 4 5 7 7 7 7 8 9 8 8 8 8 9 11 13 15 16 18 18 18 18 16 14 12 12 11 10 8
4 3 1 5 2 4 6 2 4 3 1 3 4 4 3 4 7 7 9 9 9 8 8 9 10 10 9 9 12 15 18 18 19 19 17 16 15 15 13 11 10 9 7 4
5 4 4 2 4 7 6 3 3 0 2 1 5 6 5 4 6 9 10 11 9 9 10 11 10 11 12 15 16 18 21 21 18 16 15 15 13 12 10 9 8 5 4 2
3 7 7 7 9 6 10 7 3 2 4 6 9 10 7 5 7 10 11 11 10 10 11 13 13 13 17 19 20 22 22 19 16 15 15 13 12 10 9 8 6 3 1 1
9 8 7 3 4 4 3 5 3 6 7 8 10 11 10 8 7 10 12 12 11 12 13 14 15 17 20 22 22 22 20 17 16 15 13 12 10 9 7 5 4 1 1 3
Wind_Direction
181 168 194 196 202 210 211 211 232 190 157 207 223 228 232 230 223 229 241 244 237 240 245 242 239 238 238 236 233 232 231 229 226 227 248 244 243 247 242 238 233 235 235 237
166 197 168 188 206 221 243 225 211 177 183 209 218 229 234 226 233 243 250 254 252 250 246 246 253 247 241 240 240 235 232 232 231 228 243 256 252 248 247 252 250 247 249 251
170 170 168 174 215 206 237 192 205 190 186 222 274 239 230 224 233 242 252 255 257 258 253 253 256 255 246 239 236 236 238 235 235 232 230 252 253 251 256 253 254 254 250 246
169 130 193 187 220 207 201 203 208 168 182 204 195 262 196 193 214 216 208 204 193 196 197 211 244 261 246 236 235 234 229 232 237 235 230 230 238 239 246 255 257 257 257 254
120 163 173 195 176 210 184 204 181 177 211 159 187 243 135 174 188 183 169 161 156 143 132 113 91 78 63 54 252 250 249 246 242 236 235 232 234 241 246 249 257 257 265 264
87 74 61 99 39 208 145 126 114 159 187 228 182 214 168 182 184 165 157 155 136 122 115 98 82 73 60 61 62 55 346 255 247 242 242 240 234 239 245 247 249 252 256 260
71 46 37 97 78 127 126 155 146 160 189 223 141 193 15 131 147 162 160 145 123 113 105 93 78 63 42 35 40 37 36 348 299 261 250 245 243 239 241 245 250 256 255 258
84 131 24 170 142 172 133 170 270 167 190 167 152 216 135 141 172 138 145 140 130 113 89 62 35 25 5 357 334 316 307 296 274 262 258 248 242 242 242 247 248 252 259 262
132 71 68 206 225 139 133 173 2 309 21 173 173 158 145 169 167 164 165 168 152 125 64 18 9 8 358 338 324 308 298 284 275 270 257 253 264 258 254 249 247 250 250 250
116 101 69 60 23 349 152 133 161 232 185 201 186 183 147 167 167 171 171 179 164 156 28 354 352 352 348 330 307 310 300 301 298 284 269 256 249 250 251 252 250 249 253 256
124 92 127 159 197 191 143 185 270 315 326 289 152 150 124 162 161 159 152 163 169 174 338 339 345 7 357 340 327 328 319 311 304 309 303 282 269 263 260 261 262 264 269 272
27 98 145 116 73 310 311 249 213 256 175 21 318 86 160 153 136 120 124 156 176 179 276 325 49 51 30 8 353 341 345 335 321 297 298 297 267 247 247 256 260 262 265 269
160 142 128 155 214 195 228 217 226 94 355 218 287 118 182 151 162 173 192 188 186 186 208 191 163 100 78 14 7 9 353 343 334 332 283 272 278 283 273 272 279 286 289 289
346 93 328 283 46 110 192 208 195 141 202 149 234 132 188 185 197 227 204 182 188 195 200 190 183 159 92 265 317 353 348 360 357 351 353 329 287 274 273 280 297 302 303 305
316 120 96 40 60 149 206 202 201 195 238 250 63 192 177 189 206 239 198 176 186 205 204 200 192 174 152 281 321 333 7 33 34 28 13 351 337 331 340 339 342 335 316 309
60 140 124 270 251 247 255 235 215 220 230 240 247 258 267 234 192 197 205 188 205 202 199 199 196 176 162 174 282 315 76 58 59 71 17 6 332 88 70 53 35 25 8 5
222 153 202 128 221 274 253 229 207 207 215 221 221 228 150 170 201 245 231 218 202 193 193 198 196 188 184 181 179 173 130 73 71 71 71 70 78 82 84 77 71 70 68 68
202 192 216 308 240 248 80 76 223 212 222 215 230 237 250 281 279 252 231 202 192 187 184 188 187 189 188 170 180 182 154 126 95 93 102 102 98 97 88 91 86 84 83 89
276 212 198 257 249 328 160 145 166 177 195 214 225 245 270 293 247 230 187 176 187 191 176 182 179 190 192 179 195 202 182 149 134 128 124 119 113 106 104 103 99 97 98 96
144 285 260 151 264 257 72 106 174 241 136 93 182 242 279 234 269 94 169 188 187 172 175 177 187 187 186 193 202 201 184 163 154 144 128 119 112 106 107 101 99 100 97 96
193 206 230 229 274 289 132 151 205 237 104 119 335 290 286 262 344 149 193 193 171 173 191 190 183 187 205 206 207 193 173 159 147 137 128 123 117 112 105 103 101 103 108 105
205 203 211 209 240 250 138 121 240 94 93 358 347 331 302 291 252 222 204 190 179 181 186 188 190 199 202 196 185 170 157 147 143 136 133 126 119 114 112 112 112 108 101 93
229 234 299 217 223 83 170 57 38 341 291 353 345 334 305 244 237 218 203 190 188 186 194 193 196 191 187 180 170 162 151 146 142 140 134 129 124 121 121 122 118 115 106 95
230 198 237 300 207 225 206 294 345 20 203 114 343 335 317 258 236 215 207 204 202 195 193 184 186 190 175 165 162 160 148 145 145 143 141 135 134 134 133 130 127 121 116 87
4 157 225 245 269 246 237 247 162 45 334 295 297 312 301 266 240 230 215 211 208 198 200 191 189 185 175 168 161 158 154 152 153 156 150 147 147 147 146 148 149 154 102 356
216 230 219 256 20 285 79 151 294 309 310 291 281 275 287 269 233 224 220 214 207 198 200 188 183 178 173 167 165 164 161 160 163 162 160 160 160 159 158 160 168 186 304 326
Height
1439 1444 1450 1448 1448 1451 1446 1451 1453 1452 1463 1467 1467 1468 1470 1473 1476 1476 1475 1475 1476 1478 1480 1482 1484 1486 1488 1490 1492 1495 1497 1499 1502 1504 1501 1504 1506 1510 1512 1514 1517 1517 1519 1520
1433 1440 1444 1451 1455 1456 1450 1445 1448 1452 1458 1469 1463 1464 1463 1467 1470 1473 1473 1472 1472 1474 1476 1478 1480 1481 1483 1485 1486 1488 1491 1494 1496 1498 1498 1498 1501 1503 1505 1507 1510 1511 1513 1513
1423 1435 1444 1455 1456 1459 1458 1446 1445 1455 1463 1470 1466 1464 1462 1463 1467 1468 1470 1472 1472 1473 1474 1476 1476 1476 1476 1477 1480 1483 1486 1488 1490 1492 1496 1495 1497 1499 1498 1500 1501 1503 1506 1507
1427 1440 1441 1451 1457 1459 1452 1441 1442 1452 1466 1466 1466 1454 1448 1452 1464 1468 1468 1469 1470 1472 1473 1474 1473 1472 1471 1471 1472 1475 1477 1480 1483 1486 1488 1491 1491 1492 1494 1495 1495 1496 1498 1499
1442 1440 1444 1447 1456 1460 1454 1448 1445 1456 1459 1458 1467 1468 1446 1458 1463 1462 1465 1469 1471 1472 1472 1472 1472 1471 1470 1469 1469 1470 1472 1474 1476 1478 1480 1483 1486 1488 1490 1492 1492 1493 1492 1492
1441 1446 1451 1454 1458 1461 1455 1452 1457 1459 1460 1470 1449 1455 1457 1454 1454 1459 1465 1469 1470 1471 1472 1472 1472 1472 1471 1471 1470 1469 1469 1470 1471 1473 1475 1477 1480 1483 1485 1486 1487 1488 1488 1488
1448 1455 1458 1459 1462 1463 1459 1464 1468 1471 1474 1454 1452 1462 1445 1451 1451 1457 1463 1467 1469 1470 1471 1473 1473 1473 1472 1471 1470 1470 1470 1470 1470 1470 1471 1472 1475 1478 1479 1481 1481 1482 1483 1483
1441 1454 1462 1462 1459 1460 1459 1463 1451 1445 1447 1444 1465 1457 1443 1452 1456 1460 1465 1467 1468 1470 1471 1472 1472 1472 1472 1471 1470 1469 1469 1469 1468 1469 1469 1469 1470 1471 1473 1476 1477 1478 1479 1480
1444 1452 1461 1461 1459 1458 1458 1458 1452 1450 1444 1441 1445 1445 1452 1457 1458 1461 1464 1467 1468 1469 1471 1472 1471 1470 1470 1470 1469 1467 1467 1466 1465 1465 1466 1467 1467 1468 1469 1470 1471 1472 1472 1473
1435 1449 1460 1459 1458 1453 1452 1456 1456 1459 1455 1443 1436 1433 1433 1452 1455 1458 1462 1464 1466 1468 1470 1470 1470 1469 1468 1467 1466 1465 1463 1463 1463 1463 1462 1463 1463 1464 1464 1465 1466 1466 1466 1466
1429 1436 1457 1454 1457 1454 1452 1452 1453 1450 1448 1433 1436 1430 1428 1442 1449 1455 1460 1463 1465 1467 1469 1469 1469 1467 1466 1465 1464 1464 1462 1462 1462 1461 1460 1460 1460 1461 1461 1462 1461 1462 1462 1462
1435 1440 1451 1451 1452 1452 1448 1444 1442 1450 1452 1453 1449 1443 1437 1443 1450 1456 1459 1461 1463 1465 1467 1467 1466 1465 1464 1464 1463 1463 1461 1460 1460 1459 1459 1458 1457 1457 1457 1457 1458 1458 1458 1457
1437 1442 1453 1454 1453 1452 1451 1448 1447 1454 1458 1455 1440 1445 1440 1446 1453 1455 1457 1459 1462 1464 1465 1465 1465 1464 1463 1463 1462 1462 1460 1459 1459 1458 1457 1456 1456 1455 1455 1454 1455 1455 1454 1454
1437 1439 1443 1438 1441 1443 1455 1449 1452 1462 1455 1441 1440 1442 1448 1447 1451 1452 1453 1456 1459 1462 1463 1463 1463 1464 1462 1462 1462 1460 1459 1458 1457 1456 1455 1455 1454 1453 1452 1452 1452 1452 1452 1451
1438 1446 1447 1444 1445 1446 1448 1450 1450 1461 1452 1450 1441 1438 1441 1445 1448 1450 1452 1455 1457 1460 1461 1461 1462 1462 1461 1461 1460 1459 1458 1457 1455 1455 1454 1454 1453 1452 1451 1451 1451 1451 1451 1450
1442 1449 1448 1454 1447 1447 1450 1446 1447 1451 1450 1448 1447 1447 1441 1444 1448 1450 1450 1453 1455 1457 1459 1460 1458 1459 1461 1460 1459 1459 1458 1456 1455 1455 1454 1453 1453 1452 1450 1450 1450 1449 1450 1449
1441 1445 1447 1445 1449 1447 1445 1440 1443 1445 1445 1444 1449 1445 1443 1445 1446 1448 1451 1453 1455 1455 1456 1457 1459 1458 1458 1458 1459 1459 1457 1456 1455 1454 1454 1454 1453 1452 1451 1451 1450 1449 1450 1451
1442 1443 1444 1442 1444 1440 1436 1436 1437 1441 1441 1443 1443 1443 1445 1446 1447 1449 1450 1450 1451 1452 1454 1456 1456 1454 1455 1456 1457 1456 1455 1455 1455 1454 1454 1454 1454 1452 1451 1452 1452 1452 1453 1455
1442 1440 1443 1444 1437 1431 1435 1438 1438 1439 1439 1439 1441 1443 1443 1445 1446 1444 1445 1446 1448 1449 1452 1453 1452 1452 1453 1455 1454 1454 1455 1455 1455 1455 1455 1454 1454 1453 1454 1454 1455 1457 1459 1459
1445 1443 1444 1448 1446 1436 1432 1436 1437 1437 1439 1438 1440 1441 1443 1444 1440 1439 1444 1445 1446 1448 1449 1449 1449 1451 1452 1452 1453 1454 1454 1454 1454 1455 1455 1456 1457 1457 1457 1457 1459 1461 1462 1463
1444 1443 1445 1441 1441 1433 1432 1437 1437 1440 1444 1439 1440 1439 1440 1440 1441 1443 1442 1443 1445 1447 1446 1447 1449 1449 1450 1451 1452 1453 1453 1453 1454 1456 1458 1459 1459 1460 1461 1461 1463 1465 1466 1466
1438 1439 1442 1442 1442 1440 1435 1437 1436 1438 1438 1438 1438 1439 1439 1440 1439 1440 1441 1442 1444 1445 1445 1446 1446 1448 1450 1450 1451 1452 1453 1454 1456 1458 1460 1461 1462 1463 1464 1465 1466 1467 1468 1468
1439 1434 1433 1435 1434 1433 1434 1434 1436 1437 1437 1439 1439 1439 1438 1439 1438 1439 1440 1442 1443 1444 1443 1445 1447 1448 1448 1449 1450 1451 1453 1456 1459 1461 1462 1463 1464 1465 1467 1468 1469 1469 1469 1470
1434 1436 1435 1436 1428 1432 1433 1435 1435 1435 1436 1437 1438 1437 1437 1438 1438 1438 1439 1439 1440 1442 1443 1445 1446 1446 1448 1449 1451 1454 1455 1458 1461 1463 1464 1464 1466 1467 1468 1469 1470 1470 1471 1471
1432 1434 1431 1430 1429 1431 1431 1432 1435 1435 1435 1436 1436 1436 1436 1437 1436 1436 1437 1438 1439 1440 1442 1442 1444 1445 1447 1449 1452 1455 1457 1459 1461 1463 1464 1466 1467 1468 1469 1469 1470 1470 1471 1470
1429 1428 1429 1425 1426 1426 1429 1432 1433 1433 1434 1434 1434 1434 1434 1434 1435 1435 1435 1436 1438 1439 1439 1441 1442 1444 1447 1449 1452 1455 1457 1459 1461 1463 1464 1466 1468 1468 1469 1469 1470 1471 1471 1470